Location: Gaast
(52.9002°N, 5.8891°E)
Time: 05:57:59
(UTC+00:00)

SPOT 1/Viking Rocket - Pass Details

Date: 18 November 2025
Orbit: 773 x 789 km, 98.2° (Epoch: 11 December)

Event Time Altitude Azimuth Distance (km) Brightness Sun altitude
Rises 16:40:40 0° 135° (SE) 3,265 6.5 -9.4°
Reaches altitude 10° 16:43:07 10° 127° (SE) 2,343 5.7 -9.8°
Maximum altitude 16:47:48 36° 63° (ENE) 1,236 4.1 -10.4°
Drops below altitude 10° 16:52:31 10° 358° (N) 2,364 5.9 -11.1°
Sets 16:55:00 0° 350° (N) 3,298 6.7 -11.5°
